Wetbulb
75.34 74.93 75.51 75.43 75.68 77.02 77.13 76.13 78.18 79.26 79.71 79.03 77.75 78.16 77.97 78.64 78.87 79.17 78.13 77.10 76.95 77.90 77.00 77.31 76.88 78.05 76.42 75.84 75.39 74.73 73.39 73.42 71.17 73.35 74.29 77.46 77.04 75.26 76.32 76.96 76.07 71.53 66.86
75.05 76.18 75.73 75.88 75.88 75.45 75.77 76.73 77.13 77.78 79.92 79.73 79.04 79.00 78.15 78.56 78.13 77.79 76.38 75.95 77.00 76.42 75.74 76.77 76.78 75.54 76.37 77.37 75.84 75.76 75.18 71.62 72.09 70.57 72.96 72.80 75.62 77.45 76.31 76.08 75.36 72.21 67.42
75.90 75.72 75.48 75.75 76.00 76.31 76.16 76.68 77.83 78.14 78.50 78.97 79.28 78.01 77.73 77.89 77.73 77.37 77.18 76.38 76.49 76.26 76.39 75.37 75.02 75.99 75.10 75.16 75.51 75.57 74.46 74.57 72.50 70.23 71.08 73.37 75.38 73.77 74.99 76.48 72.53 70.67 66.56
75.14 75.59 75.32 75.76 76.67 76.12 77.02 77.06 77.29 78.59 77.80 78.35 78.25 78.09 78.02 77.78 77.37 76.90 76.80 76.59 76.38 75.93 75.80 76.02 75.32 75.42 75.29 73.18 75.02 75.25 74.35 74.56 73.29 72.59 72.19 71.60 73.21 73.88 72.86 72.08 70.59 71.70 64.36
75.67 76.18 76.27 76.67 77.24 77.14 77.47 77.68 77.94 77.90 77.72 78.10 77.64 77.64 77.56 76.85 75.57 73.11 76.79 76.88 76.38 75.66 76.20 76.55 76.32 73.13 72.54 72.88 75.12 75.38 75.35 73.89 73.23 72.42 70.67 71.49 71.99 70.75 70.30 72.22 71.10 71.68 71.71
76.11 76.01 77.48 76.94 77.07 77.02 76.93 77.04 77.34 77.31 77.61 77.71 76.48 76.75 76.45 76.28 66.72 67.87 70.51 76.29 76.07 75.31 75.13 75.97 75.68 74.78 73.51 70.80 71.23 70.57 70.66 73.51 72.22 72.00 71.06 70.03 71.43 70.82 71.57 71.77 71.45 70.78 68.33
76.52 76.74 77.14 77.45 76.84 77.41 77.69 77.77 77.45 77.20 77.16 77.19 77.44 76.71 76.20 64.32 61.07 62.81 65.71 73.24 75.63 75.58 75.21 75.05 75.20 73.91 74.06 74.55 69.33 68.54 68.63 68.38 69.73 71.00 71.79 71.71 72.58 73.67 72.34 71.01 71.19 70.80 70.32
75.94 76.18 76.68 76.91 77.11 77.30 77.19 77.04 75.56 77.32 77.36 76.84 76.81 75.86 72.74 64.04 61.61 61.82 63.20 69.52 73.91 74.58 75.39 75.23 75.53 75.33 65.06 67.93 71.70 72.48 71.84 70.31 67.53 65.98 68.77 68.38 66.79 66.69 69.02 71.48 72.35 72.42 72.18
74.79 75.87 76.26 76.84 76.41 75.60 76.68 77.05 77.84 76.91 75.62 75.28 73.19 72.84 67.58 64.31 61.09 60.15 64.17 72.55 75.09 74.34 72.89 65.21 68.71 68.50 59.07 59.84 68.94 71.17 72.43 65.94 60.84 60.05 60.39 60.68 61.61 62.57 64.55 68.20 66.03 67.60 66.02
74.56 75.11 75.45 74.86 75.20 74.46 74.48 74.25 74.92 72.80 69.97 68.61 67.73 66.79 64.12 65.40 56.40 57.36 61.71 68.80 70.15 72.11 68.29 62.24 58.15 56.72 56.49 58.07 66.55 69.09 69.19 68.54 65.70 63.34 63.84 63.59 64.16 60.63 60.48 58.94 59.24 62.35 63.80
71.43 72.92 73.36 71.49 74.01 73.93 73.37 72.61 72.96 70.21 66.13 65.16 63.49 63.57 61.38 61.29 59.07 55.59 58.25 67.19 67.51 66.54 63.82 59.44 55.68 54.35 54.55 54.49 57.31 60.12 61.50 63.45 66.35 64.86 61.95 57.87 59.62 57.30 56.55 56.97 56.07 56.15 57.06
69.31 69.62 69.60 70.04 69.56 69.34 68.34 66.36 64.68 62.16 59.73 58.89 58.69 58.61 58.23 57.66 55.39 55.05 55.21 56.58 61.24 60.92 57.76 55.59 53.40 51.07 50.84 52.28 55.75 54.95 56.51 59.69 59.07 56.82 54.58 53.12 53.12 54.17 57.00 56.22 56.38 55.33 55.75
68.84 67.19 67.69 68.62 68.36 68.38 65.97 63.99 62.66 62.37 60.50 59.39 57.87 56.68 56.68 57.95 57.32 54.29 54.11 55.80 57.84 59.24 57.08 54.29 53.69 52.40 52.19 55.57 53.71 55.25 58.54 60.07 57.55 54.91 53.99 53.32 53.52 54.04 55.85 57.00 56.93 55.91 56.63
64.78 64.49 65.19 65.97 65.14 65.40 65.23 64.06 62.75 61.99 60.47 60.00 58.55 57.72 58.31 59.80 61.20 60.05 58.22 58.02 56.77 57.35 57.32 58.02 55.78 55.68 54.58 56.45 58.32 57.50 57.22 57.44 56.88 54.99 53.87 53.44 52.58 53.67 52.78 53.44 55.36 56.23 54.08
64.55 63.59 61.91 60.83 60.09 57.11 54.84 53.80 60.10 54.32 54.38 61.58 62.00 60.66 59.07 56.23 51.00 45.43 48.22 60.81 62.22 59.69 60.48 61.03 60.23 59.06 59.42 59.38 58.44 58.73 56.29 55.35 55.24 55.12 54.53 54.37 53.44 53.46 52.07 53.21 52.35 54.21 54.36
61.26 60.58 60.99 60.78 59.14 59.31 58.12 54.79 45.97 45.65 43.95 43.21 44.30 52.57 47.69 45.79 43.24 43.11 42.58 46.90 50.11 50.63 59.86 61.89 59.26 58.58 58.19 58.66 58.45 58.31 58.08 57.68 56.60 54.95 54.13 54.44 55.08 54.94 55.47 55.63 54.68 54.35 53.92
63.65 62.80 63.01 61.82 60.85 59.86 60.78 59.43 55.89 49.06 45.79 44.53 43.81 43.70 44.74 44.08 43.54 42.39 42.10 45.72 47.72 49.97 57.58 60.88 60.17 59.09 58.83 57.84 57.81 56.46 56.11 56.27 57.74 54.90 55.00 54.30 53.66 53.00 51.35 52.50 52.90 52.92 52.57
65.19 59.50 64.98 64.76 64.59 63.91 63.96 62.70 60.50 59.02 57.77 54.26 46.63 48.67 43.18 42.81 44.44 43.36 43.56 46.24 55.88 53.14 57.24 59.29 58.97 58.13 57.62 57.70 57.33 56.26 55.78 55.31 54.73 53.88 53.55 53.40 53.28 53.58 52.57 52.69 49.94 48.43 49.08
62.63 62.43 62.68 61.57 62.50 59.35 61.12 60.63 58.80 60.48 60.37 59.46 56.34 48.43 45.77 43.42 42.97 42.40 41.90 52.50 56.20 57.04 58.03 58.13 58.63 58.00 57.22 57.56 56.67 55.14 54.71 51.72 52.78 52.40 51.96 50.64 49.77 49.83 49.88 48.67 45.26 45.65 46.21
59.87 57.43 60.33 60.89 60.25 62.25 60.83 59.48 60.06 60.89 60.72 58.33 57.28 55.41 51.08 46.79 49.10 50.96 50.37 53.99 56.18 56.37 57.83 59.25 59.93 60.18 58.57 58.22 57.41 57.01 54.56 52.57 53.45 52.70 51.27 50.81 50.32 49.86 48.41 47.56 47.93 47.32 47.55
58.48 58.94 55.52 60.70 60.95 61.01 62.08 61.89 61.57 61.24 59.89 59.14 60.21 55.23 50.76 57.60 56.51 56.32 58.68 59.75 59.39 59.51 60.44 60.00 59.74 59.58 59.37 58.33 57.93 55.41 53.70 53.88 51.70 50.65 49.73 49.41 48.97 48.58 48.51 48.01 47.53 47.88 48.09
59.12 58.00 58.86 58.66 59.26 60.10 59.69 59.92 59.44 58.29 58.15 58.38 59.26 53.28 46.47 58.13 57.94 57.07 57.39 59.40 59.93 60.06 59.51 61.30 59.58 58.73 58.50 57.72 56.41 55.79 54.78 53.53 53.21 52.01 51.62 50.73 50.55 50.17 49.26 48.80 49.00 48.92 48.51
60.33 59.48 59.67 60.46 59.80 56.77 59.53 58.93 58.45 59.65 58.82 59.87 58.45 56.18 54.84 56.70 58.06 57.59 57.64 59.87 59.97 59.31 59.43 59.71 59.71 59.18 58.95 58.08 57.37 56.56 54.55 53.50 53.13 52.73 51.79 50.91 50.20 49.82 50.12 49.41 49.35 48.82 47.60
60.51 60.07 60.06 61.01 61.01 59.31 60.23 59.68 59.73 54.77 57.44 58.22 58.45 58.06 57.69 58.05 58.40 59.42 59.54 60.24 59.60 58.24 58.66 58.42 58.29 57.63 57.81 56.78 56.68 55.53 55.02 53.97 52.59 52.11 52.46 51.23 51.02 48.04 48.89 49.91 49.92 49.11 48.47
60.61 60.15 59.82 59.77 59.38 59.65 59.90 59.04 58.54 58.40 57.82 58.55 58.61 58.90 58.49 58.09 58.11 58.00 56.62 57.69 59.79 59.65 58.52 58.68 58.09 57.76 56.85 56.24 50.67 47.74 38.07 38.65 47.03 44.00 51.86 51.91 51.05 50.50 49.77 49.14 49.55 48.46 47.79
59.76 58.90 57.20 55.71 54.74 55.33 55.06 54.79 54.68 54.96 54.51 54.60 55.16 56.19 57.48 56.35 58.35 58.20 58.80 59.04 54.87 55.00 59.45 56.12 54.61 56.72 56.19 54.70 48.98 37.77 33.24 39.57 42.96 37.52 48.37 51.32 50.21 49.70 49.81 50.19 49.61 48.51 48.29
MSLP
1013.72 1014.37 1014.69 1015.16 1015.60 1015.85 1016.16 1016.37 1016.51 1016.63 1016.83 1017.08 1017.28 1017.46 1017.45 1017.49 1017.61 1017.80 1017.97 1017.93 1018.05 1018.06 1018.13 1018.16 1018.28 1018.30 1018.33 1018.25 1018.15 1018.13 1018.05 1018.12 1018.20 1017.73 1017.44 1017.15 1017.01 1016.79 1016.76 1016.78 1017.42 1018.27 1018.93
1012.90 1013.58 1014.18 1014.85 1015.21 1015.56 1015.88 1016.08 1016.37 1016.53 1016.64 1016.83 1017.15 1017.25 1017.40 1017.43 1017.70 1017.89 1018.02 1017.84 1017.85 1017.86 1017.90 1018.06 1018.12 1018.11 1018.28 1018.42 1018.41 1018.42 1018.43 1018.56 1018.87 1018.60 1017.90 1017.53 1017.09 1017.03 1016.88 1016.91 1017.31 1018.35 1019.00
1012.20 1012.97 1013.76 1014.34 1014.97 1015.16 1015.49 1015.72 1015.86 1016.15 1016.42 1016.64 1016.88 1017.18 1017.35 1017.43 1017.60 1017.69 1017.78 1017.99 1017.88 1017.89 1017.80 1017.88 1017.74 1017.78 1018.11 1018.18 1018.27 1018.37 1018.46 1018.71 1019.24 1018.85 1018.72 1017.79 1017.19 1017.21 1017.29 1017.16 1017.90 1018.31 1018.85
1011.61 1012.43 1013.25 1013.99 1014.40 1014.75 1015.08 1015.50 1015.67 1016.05 1016.42 1016.65 1016.87 1017.10 1017.25 1017.36 1017.52 1017.46 1017.46 1017.67 1017.80 1017.75 1017.79 1017.71 1017.60 1017.71 1017.75 1017.79 1018.04 1018.23 1018.21 1018.35 1018.57 1018.76 1018.52 1017.89 1017.75 1017.75 1017.37 1017.81 1018.55 1018.76 1019.23
1011.20 1011.92 1012.70 1013.46 1014.06 1014.62 1015.03 1015.34 1015.57 1015.92 1016.24 1016.54 1016.88 1017.12 1017.34 1017.46 1017.44 1017.78 1017.45 1017.53 1017.66 1017.71 1017.78 1017.82 1017.79 1017.91 1017.91 1017.94 1017.90 1018.09 1018.35 1018.68 1018.82 1018.88 1018.75 1018.46 1018.38 1018.45 1018.31 1017.94 1017.99 1018.32 1018.32
1010.88 1011.54 1012.23 1013.11 1013.78 1014.30 1014.81 1015.11 1015.43 1015.71 1016.07 1016.43 1016.66 1016.89 1017.16 1017.58 1018.04 1018.08 1017.96 1017.71 1017.84 1017.96 1017.92 1017.82 1017.90 1018.08 1018.17 1018.16 1018.16 1018.30 1018.48 1018.83 1019.04 1019.04 1019.01 1019.00 1018.75 1018.58 1018.44 1018.10 1018.04 1018.03 1018.04
1010.76 1011.25 1012.01 1012.71 1013.45 1014.08 1014.37 1014.70 1014.97 1015.38 1015.79 1016.01 1016.30 1016.72 1017.06 1017.93 1018.21 1018.39 1018.10 1018.01 1017.88 1017.89 1017.81 1017.92 1018.06 1018.17 1018.37 1018.43 1018.52 1018.47 1018.29 1018.76 1019.29 1019.42 1019.12 1018.95 1018.75 1018.52 1018.15 1018.20 1018.08 1018.08 1018.14
1010.71 1011.49 1012.20 1012.71 1013.29 1013.84 1014.30 1014.52 1014.93 1015.24 1015.50 1015.83 1016.04 1016.49 1017.34 1018.46 1018.52 1018.32 1018.08 1017.96 1017.89 1017.92 1018.01 1018.20 1018.20 1018.42 1018.97 1018.90 1018.77 1018.53 1018.59 1019.11 1019.57 1019.53 1019.35 1019.32 1019.31 1019.01 1018.56 1018.36 1018.17 1018.11 1018.15
1010.64 1011.42 1012.28 1012.85 1013.28 1013.74 1014.20 1014.56 1014.97 1015.38 1015.54 1015.85 1016.39 1016.77 1017.69 1018.64 1018.83 1018.58 1018.20 1018.01 1017.43 1017.74 1018.50 1019.13 1019.13 1019.35 1019.45 1019.35 1019.12 1018.81 1018.81 1019.56 1019.78 1019.72 1019.51 1019.50 1019.49 1019.42 1018.96 1018.46 1019.00 1018.83 1018.65
1011.24 1011.77 1012.51 1013.24 1013.59 1014.04 1014.54 1015.08 1015.27 1015.68 1016.29 1016.93 1017.42 1018.02 1018.29 1018.80 1019.08 1018.57 1018.47 1018.42 1018.11 1018.41 1019.25 1019.72 1019.88 1020.04 1019.90 1019.83 1019.62 1019.30 1019.32 1019.36 1019.43 1019.33 1019.55 1019.45 1019.78 1019.87 1019.83 1019.95 1019.92 1019.95 1019.80
1012.04 1012.55 1013.24 1013.71 1014.22 1014.64 1015.02 1015.36 1015.51 1016.25 1017.18 1017.93 1018.47 1018.90 1019.14 1019.31 1019.46 1019.36 1019.24 1019.11 1018.96 1018.98 1019.76 1020.36 1020.58 1020.45 1020.34 1020.45 1020.23 1020.10 1019.84 1019.58 1019.58 1019.63 1019.86 1020.13 1020.46 1020.63 1020.79 1020.84 1020.75 1020.71 1020.80
1012.91 1013.22 1014.23 1014.47 1015.34 1015.42 1015.61 1016.39 1016.91 1017.18 1018.04 1018.78 1019.18 1019.66 1019.70 1019.81 1019.93 1019.88 1019.80 1019.64 1019.56 1019.67 1020.33 1020.96 1020.92 1020.86 1021.18 1020.97 1020.64 1020.29 1020.09 1019.99 1020.26 1020.61 1020.91 1021.26 1021.27 1021.36 1021.39 1021.35 1021.21 1021.11 1021.03
1013.91 1014.49 1014.85 1015.23 1015.77 1015.86 1016.35 1016.90 1017.60 1018.17 1018.83 1019.39 1019.57 1019.65 1020.14 1020.37 1020.75 1020.89 1020.54 1020.33 1020.22 1020.56 1020.80 1021.12 1021.08 1020.98 1021.21 1021.27 1021.18 1020.88 1020.64 1020.66 1020.78 1021.03 1021.47 1021.53 1021.55 1021.49 1021.40 1021.32 1021.29 1021.14 1021.08
1014.78 1015.17 1015.23 1015.87 1016.23 1016.71 1017.10 1017.69 1018.36 1019.10 1019.58 1020.12 1020.04 1019.89 1019.94 1020.51 1020.96 1021.26 1021.23 1021.13 1020.79 1020.92 1021.34 1021.48 1021.18 1021.05 1021.11 1021.30 1021.26 1021.22 1021.14 1021.15 1021.32 1021.55 1021.84 1021.89 1021.79 1021.66 1021.67 1021.54 1021.44 1021.30 1021.49
1015.31 1015.81 1016.21 1016.61 1017.06 1017.68 1018.54 1018.90 1018.96 1019.86 1019.98 1020.30 1019.96 1019.93 1020.07 1020.66 1021.40 1021.71 1021.66 1021.33 1021.03 1020.83 1020.85 1020.96 1021.16 1021.24 1021.12 1021.19 1021.38 1021.40 1021.37 1021.36 1021.54 1021.89 1022.06 1022.05 1021.89 1021.78 1021.70 1021.51 1021.43 1021.24 1021.42
1015.71 1016.47 1016.89 1017.09 1017.71 1018.24 1018.69 1019.52 1020.04 1020.11 1020.32 1020.49 1020.48 1020.34 1020.90 1021.09 1021.55 1021.70 1021.84 1021.71 1021.28 1021.23 1020.98 1020.71 1020.82 1020.93 1021.09 1021.14 1021.24 1021.26 1021.35 1021.55 1021.64 1021.75 1021.80 1021.81 1021.79 1021.66 1021.45 1021.44 1021.45 1021.32 1021.37
1015.56 1016.19 1016.90 1017.14 1017.67 1018.23 1018.64 1019.07 1019.84 1020.79 1020.72 1020.74 1020.78 1020.93 1021.28 1021.70 1021.91 1021.87 1021.85 1021.71 1021.60 1021.38 1020.95 1020.45 1020.55 1020.73 1020.87 1021.06 1021.07 1021.16 1021.29 1021.61 1021.56 1021.53 1021.62 1021.94 1021.89 1021.82 1021.92 1021.84 1021.66 1021.70 1021.83
1015.65 1015.91 1016.56 1016.55 1016.76 1017.03 1017.45 1017.95 1018.65 1019.48 1020.02 1020.60 1021.12 1021.44 1021.89 1022.09 1022.06 1021.95 1021.89 1021.92 1021.80 1021.47 1020.63 1020.20 1020.40 1020.80 1021.02 1021.00 1021.06 1021.15 1021.27 1021.46 1021.65 1021.66 1021.72 1021.83 1021.91 1021.84 1021.81 1022.03 1022.36 1022.36 1022.30
1015.54 1015.66 1015.60 1016.00 1016.46 1016.64 1016.89 1017.20 1017.56 1018.14 1018.63 1019.50 1020.38 1021.35 1021.79 1022.06 1022.18 1022.22 1022.10 1021.67 1020.98 1020.53 1020.16 1019.99 1020.00 1020.41 1020.77 1021.00 1021.19 1021.39 1021.61 1021.82 1021.99 1022.09 1021.97 1022.23 1022.34 1022.32 1022.38 1022.64 1022.73 1022.98 1023.25
1015.87 1016.17 1015.93 1016.20 1016.71 1016.52 1016.65 1016.85 1017.25 1017.67 1017.91 1018.30 1018.88 1019.76 1020.85 1021.61 1021.59 1021.29 1021.22 1020.62 1020.05 1019.85 1019.38 1019.49 1019.76 1019.97 1020.42 1020.72 1021.22 1021.51 1021.84 1022.03 1022.02 1022.02 1022.48 1022.57 1022.66 1022.83 1022.97 1023.05 1022.98 1022.95 1023.09
1016.09 1016.28 1016.38 1016.10 1016.35 1016.48 1016.46 1016.63 1016.92 1017.09 1017.19 1017.45 1017.84 1018.58 1019.22 1019.44 1019.55 1019.36 1019.22 1019.23 1019.27 1019.25 1019.10 1019.39 1019.80 1020.09 1020.45 1021.00 1021.35 1021.78 1021.85 1021.68 1021.90 1022.16 1022.40 1022.69 1022.72 1022.81 1022.85 1022.92 1022.83 1022.67 1022.76
1015.45 1015.94 1015.98 1015.98 1016.41 1016.99 1016.98 1017.02 1017.10 1016.96 1016.91 1017.02 1017.50 1018.41 1018.52 1018.60 1018.79 1018.97 1018.82 1018.75 1018.92 1019.02 1019.27 1019.46 1019.82 1020.23 1020.54 1020.72 1020.97 1021.30 1021.30 1021.20 1021.35 1021.82 1022.14 1022.41 1022.59 1022.65 1022.74 1022.66 1022.43 1022.49 1022.59
1014.97 1015.16 1015.58 1015.79 1016.32 1016.94 1017.21 1017.19 1016.95 1016.97 1017.14 1017.18 1017.24 1017.81 1018.16 1018.22 1018.00 1018.33 1018.32 1018.09 1018.35 1018.60 1018.95 1019.38 1019.76 1020.09 1020.20 1020.45 1020.74 1020.90 1021.05 1021.06 1021.16 1021.49 1021.91 1022.17 1022.38 1022.41 1022.29 1022.24 1022.14 1022.07 1022.37
1014.86 1014.88 1015.18 1015.65 1016.25 1016.51 1016.64 1016.67 1016.77 1016.87 1017.03 1016.94 1017.00 1017.28 1017.49 1017.53 1017.45 1017.40 1017.41 1017.50 1017.87 1017.98 1018.38 1018.84 1019.37 1019.53 1019.98 1020.52 1020.71 1020.83 1021.04 1021.28 1021.43 1021.78 1022.19 1022.25 1022.21 1022.44 1022.42 1022.06 1021.91 1022.33 1022.62
1015.60 1015.61 1015.70 1015.84 1016.29 1016.44 1016.72 1016.94 1016.90 1017.08 1016.95 1016.86 1017.11 1017.38 1017.47 1017.34 1017.40 1017.64 1017.86 1017.80 1017.62 1017.84 1018.18 1018.63 1019.01 1019.36 1019.77 1020.37 1021.43 1021.67 1022.06 1021.92 1022.25 1022.54 1022.46 1022.41 1022.35 1022.49 1022.45 1022.29 1022.44 1022.76 1022.86
1015.79 1015.76 1015.83 1016.02 1016.32 1016.78 1017.11 1017.34 1017.51 1017.62 1017.61 1017.63 1017.62 1017.60 1017.61 1017.65 1017.32 1017.63 1017.70 1017.78 1017.87 1018.02 1018.06 1018.46 1018.87 1018.91 1019.57 1020.30 1021.47 1022.27 1022.42 1022.59 1022.80 1022.92 1022.81 1022.61 1022.68 1022.67 1022.62 1022.60 1022.85 1022.85 1022.90
Wind_Speed
14 15 11 10 9 6 5 4 5 4 2 2 4 4 4 3 4 1 3 5 5 2 6 3 4 3 3 4 5 4 3 2 3 4 2 1 2 1 3 3 8 7 6
14 12 11 12 11 11 8 7 7 6 5 3 4 3 5 4 4 4 5 7 5 5 5 5 5 4 0 4 4 4 5 5 4 5 6 4 2 2 2 2 6 8 6
12 13 13 11 9 9 10 9 7 7 6 5 3 4 6 5 5 6 5 6 7 6 5 7 6 6 3 2 4 3 3 2 1 2 6 4 1 4 3 3 6 8 7
14 13 12 11 9 9 7 8 7 6 6 6 5 5 6 6 6 8 6 7 6 7 6 5 4 3 3 3 4 3 4 3 4 2 3 5 2 2 0 1 3 2 6
13 11 11 10 9 8 6 6 6 6 6 6 5 6 6 6 6 6 7 4 4 6 6 6 2 3 5 4 1 1 3 3 4 3 4 4 3 2 4 2 2 4 5
11 11 10 10 9 8 8 7 6 7 7 6 7 6 6 2 6 7 7 3 3 4 5 5 5 4 5 5 6 5 2 2 6 4 5 5 3 5 4 3 2 2 1
10 10 10 10 9 7 6 7 7 7 6 6 7 6 6 8 5 2 6 4 4 5 6 5 4 4 2 3 2 3 4 3 3 5 5 5 6 5 5 4 3 1 2
10 8 8 9 8 7 7 7 7 5 6 6 6 6 6 6 6 5 4 2 4 5 4 5 4 2 9 6 5 4 4 5 4 4 4 4 4 6 5 4 4 3 2
8 8 7 7 7 7 6 4 3 4 6 3 4 4 9 6 6 5 7 5 2 3 8 8 6 7 9 9 5 5 5 5 3 5 7 6 7 16 14 6 7 5 2
8 7 4 4 3 4 4 5 3 7 7 5 7 7 7 7 8 11 8 4 5 5 8 6 15 8 9 9 4 4 6 2 4 4 2 2 4 13 17 10 6 4 4
7 8 6 5 6 6 7 6 6 9 8 7 7 6 7 7 9 10 9 4 3 4 4 3 5 8 8 8 7 4 3 4 2 5 6 6 7 8 7 7 7 6 3
6 9 5 6 3 7 9 6 7 8 8 6 6 4 4 6 9 9 9 8 5 5 4 3 4 7 9 9 7 7 9 8 5 6 6 4 4 4 4 4 5 4 5
9 9 9 9 7 8 8 9 7 7 5 4 2 6 3 4 3 6 8 9 9 5 4 5 4 3 2 6 9 8 7 3 4 4 3 1 2 2 2 1 2 3 5
10 7 7 8 9 8 7 7 7 6 5 3 2 3 4 3 3 1 1 3 7 6 5 2 4 5 6 4 0 4 3 3 3 3 2 1 2 1 1 2 1 1 1
9 8 8 7 8 7 8 6 5 4 2 1 3 3 4 3 2 2 3 1 1 4 5 4 2 2 3 3 2 2 2 3 3 2 1 1 2 2 1 1 2 2 3
9 6 5 6 5 4 7 6 11 9 6 6 7 4 5 8 6 4 2 3 6 7 2 3 4 3 1 1 1 2 1 1 1 2 3 4 3 3 1 1 2 2 3
9 8 6 7 7 6 5 7 6 3 5 7 8 9 5 8 5 5 4 2 3 3 3 2 3 3 1 1 2 3 3 2 3 4 3 4 3 3 3 3 2 2 1
8 8 6 6 7 7 5 7 7 7 6 5 2 1 5 6 4 3 2 1 2 3 3 2 2 2 1 0 2 3 2 3 1 0 1 0 1 2 1 1 5 6 5
6 5 6 5 3 5 3 2 5 3 5 7 6 2 5 3 1 2 2 2 4 4 3 3 2 4 3 3 3 4 4 4 3 3 4 4 4 4 4 5 4 5 2
6 7 4 6 2 3 3 2 4 4 3 6 7 8 6 5 4 5 5 6 4 4 4 2 1 2 4 3 3 3 3 1 1 1 3 3 3 2 3 2 1 2 1
5 2 4 3 5 1 2 1 1 1 3 4 4 7 13 5 3 5 5 4 3 2 2 3 5 4 4 3 1 1 3 2 4 2 2 3 3 3 2 2 2 1 2
7 7 5 3 5 2 4 4 3 3 3 3 3 3 8 2 2 3 6 3 2 4 2 3 3 3 3 4 4 3 4 4 4 3 1 1 3 3 2 3 2 3 4
4 7 7 4 5 5 3 4 5 3 3 2 4 5 5 6 3 5 6 4 4 4 3 3 2 1 1 1 1 1 2 4 2 2 2 3 3 3 3 3 4 3 5
5 2 1 5 4 2 3 4 5 3 4 4 3 4 5 5 4 4 4 3 5 5 5 5 3 3 2 2 1 0 2 4 6 4 3 4 1 3 3 4 2 5 6
6 5 3 1 3 0 2 3 5 5 6 6 4 4 7 6 5 6 7 6 3 4 4 4 4 4 4 4 10 10 8 14 8 7 2 3 5 5 5 5 5 5 4
3 1 4 5 5 6 5 6 6 7 7 7 7 7 5 6 4 4 4 1 3 1 2 4 3 6 8 6 12 10 8 9 5 6 3 0 1 3 1 2 2 2 3
Wind_Direction
193 183 191 194 201 220 208 196 260 292 261 100 164 255 286 218 223 214 301 299 281 280 274 271 259 280 293 326 345 321 318 63 348 319 0 159 171 99 45 20 136 116 99
190 180 186 193 193 199 210 221 209 229 238 201 230 272 279 267 274 218 247 280 299 253 274 287 265 257 359 263 265 321 354 354 32 342 333 332 321 143 196 240 130 110 104
185 179 184 190 201 202 202 212 210 210 223 221 210 239 246 245 265 247 203 263 274 266 247 246 240 236 239 265 295 323 343 336 159 132 276 267 17 46 300 280 118 125 110
178 182 185 187 198 211 212 198 209 200 212 217 212 228 251 248 253 245 234 217 253 279 315 325 318 317 244 273 283 300 321 4 324 268 314 313 342 331 70 353 99 72 163
174 178 177 181 190 204 216 220 208 206 214 215 226 232 234 252 249 343 254 257 262 276 288 292 337 20 37 15 315 318 9 328 322 327 310 317 351 347 340 252 103 186 208
172 173 163 175 192 192 199 209 213 216 208 210 223 228 213 223 359 359 346 251 246 257 274 294 324 349 6 337 7 15 23 284 282 274 287 305 297 314 291 321 3 42 300
168 171 169 168 183 197 197 203 204 206 217 224 217 226 220 104 94 36 26 314 301 280 276 253 273 297 326 353 266 335 323 342 308 318 302 294 304 352 323 332 322 307 251
156 170 170 172 174 181 206 222 239 238 230 227 229 226 106 70 23 18 20 257 272 275 301 344 342 351 32 360 320 252 248 94 358 332 34 359 359 329 346 337 303 276 259
160 163 172 180 168 200 215 219 244 247 251 271 345 43 115 97 357 16 8 295 292 71 68 36 32 31 2 1 346 340 328 118 107 98 91 92 68 44 28 24 12 334 307
150 142 141 160 138 116 102 101 80 65 54 77 62 54 83 106 29 21 13 326 21 41 89 90 45 28 15 7 355 351 328 173 189 143 151 253 23 48 39 43 15 26 9
101 97 96 110 90 65 76 56 71 84 80 73 79 67 67 38 37 25 9 21 17 81 74 36 37 28 46 48 44 18 354 301 16 52 48 52 56 48 43 39 42 51 51
79 108 107 80 86 84 78 69 67 82 83 78 79 57 57 53 36 31 37 47 48 76 75 83 75 48 50 34 33 25 60 63 67 70 74 55 57 45 29 31 33 43 87
111 98 87 96 104 97 87 86 86 92 95 105 103 121 76 70 49 29 43 42 54 78 93 108 97 38 278 64 31 23 42 69 98 88 87 84 118 101 310 2 49 75 81
94 101 91 92 89 90 88 85 82 82 96 113 117 122 112 129 122 111 125 127 107 102 130 98 89 91 73 111 138 46 53 50 67 96 108 75 27 23 276 242 263 179 145
98 91 91 85 85 75 62 32 72 62 37 221 156 132 122 99 84 54 7 358 325 121 148 150 129 35 33 63 59 71 85 110 102 112 156 212 209 221 264 272 275 266 250
113 108 117 122 117 118 108 96 44 54 27 30 31 102 77 76 109 93 79 34 56 34 258 180 149 146 157 155 40 225 131 126 115 200 194 211 225 224 239 234 286 318 25
112 133 139 134 130 139 160 141 127 68 50 47 62 75 93 130 111 78 60 51 73 338 261 151 120 127 70 172 131 54 86 62 331 40 40 22 36 16 19 338 14 345 333
133 162 159 159 165 163 159 140 146 160 157 148 200 119 110 133 131 94 54 1 232 214 256 31 73 108 218 130 203 179 172 138 110 124 189 102 24 307 262 326 45 41 16
162 153 139 118 106 127 144 162 100 98 121 128 141 198 168 170 209 270 288 253 283 294 209 167 179 175 201 175 69 60 44 43 26 16 25 58 32 16 31 60 77 80 353
63 45 26 112 176 169 170 147 118 143 158 178 195 152 155 163 208 202 211 210 220 264 285 86 138 111 90 61 126 159 145 162 148 308 74 49 39 14 60 40 73 323 160
123 113 356 234 180 106 27 92 162 170 183 184 163 137 168 200 338 323 199 177 189 314 9 66 64 61 89 104 140 158 298 251 134 188 154 185 155 256 213 178 278 236 33
162 166 198 148 102 118 15 11 337 307 306 317 80 124 150 189 252 272 281 158 205 131 350 93 110 152 202 184 174 241 240 205 161 159 173 220 172 211 239 255 251 222 187
217 170 161 168 122 151 199 231 235 243 288 332 335 137 183 227 215 216 243 210 151 126 131 104 146 257 106 72 343 335 347 330 155 130 198 190 219 251 226 241 214 236 90
313 210 153 141 152 238 0 335 311 206 250 276 259 255 283 300 279 263 224 216 167 157 167 159 181 193 163 97 307 229 119 31 52 68 353 328 299 165 273 279 34 58 77
327 356 341 250 130 194 267 246 316 360 340 332 345 345 332 312 332 347 15 357 83 134 141 164 162 182 154 119 78 89 69 63 69 34 326 344 28 22 343 356 47 84 71
255 326 27 12 16 29 15 3 356 351 342 338 343 343 319 279 252 264 266 258 345 39 197 170 177 154 121 114 99 108 92 77 71 54 351 330 179 259 302 185 89 344 174